GEFSSGP_850_meantemp_000.txt.gz
Temperature
22 21 20 21 27 32 32 33 30 31 30 29 29 28 29 28 27 25 21 20 20 19 19 19 19 19 19 19 19 19 19 19 19 19 19 19 19 19 19 19 19 19 19 19 19 19 19 19 19
20 20 21 26 31 32 33 31 30 30 29 28 27 27 27 25 23 21 20 19 19 19 19 18 19 19 19 19 19 19 19 19 19 19 19 19 19 19 19 19 19 19 19 19 19 19 18 19 19
21 21 25 31 31 33 31 30 29 29 28 28 27 27 26 24 22 21 20 19 19 19 19 18 18 19 19 19 19 19 19 19 19 19 19 18 18 18 19 19 19 19 19 19 19 19 18 18 18
22 24 27 31 33 32 32 30 30 29 28 27 28 27 25 22 21 20 19 19 19 18 19 18 18 18 19 19 19 19 19 19 19 19 19 18 18 18 18 18 18 18 18 19 19 19 19 18 18
23 27 31 31 32 32 32 30 29 30 29 28 28 27 24 21 20 20 19 19 19 19 19 18 18 18 19 19 19 18 19 20 19 19 18 18 18 18 18 18 18 18 18 18 18 19 18 18 17
26 29 31 31 31 31 31 30 29 30 28 28 28 27 24 21 20 20 20 20 19 19 19 18 18 18 19 19 18 18 19 20 19 19 19 18 18 18 18 18 18 18 18 18 18 18 18 18 17
27 30 30 31 32 31 32 30 30 30 28 28 28 28 24 21 20 20 20 19 20 19 19 18 17 18 19 19 19 18 19 19 19 18 19 18 18 18 18 18 18 18 18 18 18 18 18 18 18
27 29 30 31 31 32 30 28 29 29 28 26 27 28 26 20 20 20 19 19 19 19 19 18 18 18 18 18 19 18 18 18 18 18 18 18 18 18 18 18 18 18 17 18 18 18 17 17 17
26 29 30 32 32 32 30 29 27 27 26 25 25 25 25 21 20 20 19 19 18 18 18 18 18 18 18 18 18 18 18 18 18 18 18 18 17 17 17 17 18 18 18 18 18 17 17 17 17
27 29 31 31 31 31 30 30 28 27 27 25 25 23 23 21 21 20 19 19 19 18 18 18 18 18 18 18 18 17 17 17 17 16 17 17 17 17 17 17 18 18 18 18 18 17 17 17 17
28 30 30 29 29 29 30 29 29 29 29 28 27 24 22 21 21 20 20 20 19 18 18 18 17 18 18 18 18 18 18 17 17 16 16 17 17 17 17 17 17 17 17 17 17 17 17 17 17
27 29 29 29 28 29 29 29 28 29 29 27 26 24 22 22 21 20 19 19 19 18 18 18 17 17 18 18 17 17 17 17 17 17 16 16 16 17 17 17 17 17 17 17 17 17 17 17 17
28 29 28 28 29 29 29 29 28 28 26 25 24 23 22 22 22 21 20 19 18 18 18 18 18 19 18 18 17 17 17 17 17 17 17 17 17 17 17 17 17 17 17 17 17 17 17 16 16
28 28 28 29 29 29 29 29 28 28 26 24 24 23 23 22 21 21 20 19 19 19 19 20 20 21 21 20 19 17 17 17 17 17 17 17 17 17 17 17 17 17 17 18 18 17 17 17 16
27 28 29 29 29 28 29 29 29 28 26 25 24 23 23 22 21 21 20 20 19 19 19 19 20 21 22 21 19 18 17 17 17 17 17 17 18 17 17 17 18 17 17 17 17 17 17 17 17
26 28 28 30 29 28 28 30 31 28 27 26 24 23 22 21 21 21 21 20 19 19 19 18 19 20 21 20 19 17 17 17 17 17 17 17 18 17 17 17 17 18 17 17 17 17 17 18 17
27 27 28 29 29 29 28 30 30 27 26 26 24 23 21 21 20 20 20 20 20 19 19 19 20 20 19 19 18 17 17 17 17 17 17 17 17 17 17 17 18 17 17 17 17 17 17 18 17
27 27 28 28 28 28 28 29 30 25 24 24 22 21 21 20 20 20 20 20 20 19 19 19 19 19 18 18 17 17 17 17 17 17 17 17 17 17 17 17 17 17 18 17 17 17 17 17 17
27 27 27 27 27 27 27 28 28 25 24 23 21 21 20 20 19 19 19 19 19 19 19 19 19 19 19 18 17 17 18 18 18 18 18 18 18 17 17 17 17 17 18 17 17 17 17 17 17
25 25 26 27 26 27 26 25 24 23 22 21 20 20 20 20 19 19 18 18 18 18 18 18 18 18 18 18 18 18 18 19 19 20 21 20 19 18 18 18 17 17 18 17 17 17 17 16 16
25 25 26 25 26 26 26 25 24 22 20 19 18 19 19 19 19 18 17 17 17 17 17 17 17 17 18 18 18 17 17 16 17 19 19 19 20 19 19 19 18 18 17 17 17 17 17 17 17
26 25 25 25 25 26 25 25 26 24 22 21 19 19 16 14 15 16 16 15 15 16 15 15 16 17 17 17 16 16 16 16 17 17 18 18 18 18 18 18 18 18 17 17 18 18 17 17 17
25 25 25 24 24 25 25 25 27 24 24 22 20 18 16 15 14 15 14 14 14 14 14 14 15 15 16 16 16 15 15 15 16 16 17 18 17 18 17 17 17 17 17 17 17 17 17 17 17
24 24 24 24 24 23 24 25 26 26 26 23 19 17 16 15 14 15 15 15 14 14 14 14 14 14 14 14 14 15 14 14 15 16 15 15 16 17 16 16 17 17 17 17 17 17 17 17 16
23 22 22 22 23 23 25 25 25 23 22 21 19 17 16 14 14 14 14 14 14 14 14 14 14 14 13 13 13 14 14 14 14 15 14 14 15 15 16 16 16 17 17 17 16 16 16 16 16
22 22 20 20 22 23 22 23 24 21 19 18 16 16 15 14 12 13 13 13 13 13 14 14 13 14 14 13 14 14 14 14 13 14 14 14 15 16 15 15 16 16 16 16 16 16 16 16 16
19 21 19 19 19 19 22 22 21 20 19 18 17 16 15 13 12 13 13 12 13 13 13 13 13 13 13 13 14 13 13 13 13 14 14 15 15 15 14 16 16 16 16 16 16 16 16 16 16
18 19 16 17 18 18 20 20 18 19 19 19 18 17 15 13 12 13 13 12 12 12 13 13 13 13 13 13 13 13 13 13 13 14 14 14 14 14 15 15 15 15 15 15 15 15 15 15 15
20 20 20 19 19 18 18 20 20 20 17 16 16 15 14 13 13 13 13 12 12 12 13 13 13 13 13 13 13 13 13 13 13 13 13 13 13 14 14 15 15 14 15 16 15 14 14 14 14
21 20 20 18 18 18 17 18 18 17 15 15 14 13 12 13 13 13 12 12 11 11 12 12 12 12 12 12 12 13 13 12 12 13 13 13 13 14 14 14 14 15 15 16 16 14 13 13 13

GEFSSGP_850_meantemp_006.txt.gz
Temperature
25 25 24 25 28 29 31 32 33 33 34 33 32 32 30 28 27 25 25 24 21 21 21 21 20 19 19 19 19 19 19 19 19 19 19 19 19 19 19 19 19 19 19 19 19 19 19 19 19
25 25 26 28 30 31 32 32 32 32 33 33 32 32 29 28 26 25 24 23 21 21 21 20 20 19 19 19 19 19 19 19 19 19 19 19 19 19 19 19 19 19 19 19 19 19 19 19 19
25 25 27 31 32 32 32 33 33 33 33 33 32 30 29 27 26 24 24 23 21 20 20 21 20 19 19 19 19 19 19 19 19 18 18 19 19 19 19 19 19 19 19 19 19 18 18 19 19
24 28 29 31 33 34 34 33 33 33 33 33 32 29 28 27 25 24 24 23 21 20 20 21 20 20 19 19 18 18 19 19 19 18 18 19 19 19 19 19 19 19 19 18 18 18 18 19 19
26 29 31 32 33 35 35 34 33 33 33 33 32 28 27 25 24 24 24 23 22 20 20 21 20 19 19 19 19 18 18 18 18 18 18 19 18 18 19 19 18 18 18 19 19 19 18 18 18
28 31 31 32 33 35 35 34 33 33 33 32 31 28 26 25 24 24 24 24 23 21 20 21 20 19 19 19 19 19 18 18 19 19 19 19 19 19 19 18 18 18 18 18 18 19 18 18 18
29 31 31 33 34 34 35 34 34 33 33 33 32 29 26 25 24 24 24 24 24 21 20 21 21 20 20 20 19 19 19 19 19 20 19 19 19 19 18 18 19 19 18 18 18 18 18 18 18
29 31 31 33 34 35 35 34 34 33 32 32 32 30 26 25 25 24 24 24 24 22 20 20 21 20 20 20 20 20 20 20 20 19 19 19 19 19 19 19 19 19 18 18 18 18 18 18 18
29 30 30 33 34 36 36 34 34 33 32 31 31 30 26 25 25 24 24 23 23 22 20 20 20 20 20 20 20 20 20 20 20 19 19 19 19 19 18 18 18 18 18 19 19 19 18 18 18
30 30 31 34 35 35 35 34 34 33 32 31 30 28 26 25 24 24 23 23 22 22 21 20 20 20 19 19 19 19 20 19 19 19 19 19 19 18 18 18 18 18 18 19 19 19 18 18 18
31 31 32 34 35 34 34 34 34 33 32 31 30 27 26 25 24 24 23 23 22 21 21 21 20 20 19 19 19 19 19 19 19 18 18 18 18 18 18 18 18 18 18 18 18 18 18 18 17
31 32 33 33 34 33 33 34 33 32 31 31 30 28 26 26 24 24 23 23 21 21 21 21 20 20 20 20 20 20 19 19 19 19 19 18 18 18 18 18 18 18 18 18 18 18 18 18 17
32 32 32 33 33 33 33 33 33 31 30 29 28 27 26 26 25 24 23 23 22 22 21 21 20 20 20 20 20 20 20 20 19 19 19 19 18 18 18 18 18 18 18 18 18 18 18 18 18
32 32 32 33 33 33 33 33 33 30 30 29 28 27 26 26 25 25 24 23 22 21 21 21 20 20 20 20 20 19 19 19 19 19 19 19 18 18 18 19 19 19 18 18 18 18 18 18 18
31 32 32 33 33 33 33 32 33 30 29 29 28 27 27 27 26 25 24 23 22 22 21 21 21 20 21 20 20 19 19 19 19 19 18 18 18 18 18 19 19 19 18 18 18 18 18 18 18
31 30 30 32 33 33 32 31 33 30 29 29 28 28 27 26 26 25 24 23 23 22 21 21 20 20 20 20 20 19 19 19 19 19 18 18 19 19 18 19 19 19 19 18 18 19 18 18 18
30 29 30 31 33 33 32 31 33 32 30 29 28 27 27 26 25 25 24 23 22 22 21 21 20 20 19 20 20 20 19 19 19 19 19 19 18 18 18 18 19 19 19 19 18 18 18 18 18
30 30 31 31 33 33 32 32 33 32 30 28 27 27 27 26 25 25 24 23 23 22 21 20 20 20 19 19 19 20 20 20 19 19 19 19 18 18 18 18 18 18 19 19 19 18 18 18 18
31 30 30 32 34 33 32 31 32 32 31 30 28 27 26 25 24 24 24 23 22 21 21 20 20 19 19 19 19 19 19 19 19 19 19 19 19 18 18 18 18 18 18 19 19 18 18 18 18
29 29 29 31 32 31 30 30 31 32 30 29 28 27 26 25 23 23 22 22 22 21 20 20 19 19 19 18 18 18 19 19 18 18 18 18 18 18 18 18 18 18 18 18 18 18 18 18 18
28 28 29 29 30 31 29 28 30 31 30 28 26 25 25 24 22 21 21 20 19 19 19 18 18 18 18 18 18 18 18 18 18 18 17 17 17 17 17 18 18 18 18 18 18 18 18 18 18
28 29 29 29 28 28 29 27 29 30 30 28 26 24 23 22 21 19 19 18 18 18 17 18 18 18 18 18 18 17 17 17 17 17 17 17 17 16 17 17 17 17 18 18 18 18 18 18 18
27 28 27 27 27 27 28 27 28 30 28 27 25 22 20 19 18 17 17 17 17 17 16 16 17 17 17 17 17 17 16 16 16 16 16 16 16 16 16 16 17 17 17 17 18 18 18 18 17
28 27 27 27 26 25 26 27 27 29 28 26 22 20 18 17 16 16 16 16 16 16 16 15 15 16 16 16 16 16 16 16 16 16 16 16 16 16 16 16 16 16 17 17 17 17 17 17 17
27 25 23 23 24 25 27 27 27 28 28 24 20 18 17 16 16 15 15 15 15 15 15 15 15 15 15 15 15 15 16 16 16 15 15 15 15 15 15 16 16 16 16 16 16 17 17 17 17
25 25 22 20 22 25 25 24 22 23 23 22 19 17 16 15 15 15 14 14 15 15 15 15 15 15 15 15 15 15 15 16 15 15 15 14 14 14 14 14 15 15 15 15 15 16 16 17 17
25 24 25 22 21 21 23 24 22 20 20 19 17 16 16 15 15 15 15 14 14 14 14 15 15 14 14 14 14 14 15 15 15 15 14 14 14 14 14 14 14 14 15 15 15 15 16 16 16
24 24 23 21 19 19 22 23 23 20 19 18 17 16 16 15 15 14 14 14 14 14 14 14 14 14 14 14 14 14 14 14 14 14 14 14 14 14 14 14 14 14 14 14 15 15 15 15 15
20 18 17 18 19 19 19 21 21 20 19 16 15 15 15 16 16 15 15 14 14 14 14 14 14 14 14 14 14 14 14 14 14 13 13 13 13 13 14 14 14 14 14 14 14 14 14 14 14
21 18 16 14 14 15 16 18 21 19 19 18 16 16 16 16 16 16 15 15 14 14 13 13 13 13 13 13 13 13 13 13 13 13 13 13 13 13 13 13 14 14 14 14 14 14 14 14 14

GEFSSGP_850_meantemp_012.txt.gz
Temperature
24 24 23 23 21 22 23 23 26 27 26 26 26 25 25 24 23 20 20 20 22 21 20 20 21 21 21 21 20 20 20 20 20 20 20 19 20 19 19 19 19 19 19 19 19 19 19 19 19
25 25 24 22 22 23 23 23 25 27 27 26 26 25 24 22 20 19 20 21 22 22 21 21 21 21 21 21 20 20 20 20 19 19 19 19 19 19 19 19 19 19 19 19 19 19 20 20 20
26 25 24 22 23 24 24 25 27 28 28 28 26 25 24 22 19 20 21 21 22 22 21 21 21 21 21 21 20 20 20 19 19 19 19 19 19 19 19 19 19 19 19 20 20 20 20 20 20
25 25 24 22 24 26 27 27 28 28 28 27 26 24 24 23 21 21 21 22 22 22 21 21 21 21 21 20 20 20 20 20 19 19 19 19 19 19 19 19 19 19 19 19 20 20 20 20 20
25 24 22 22 25 28 29 29 30 28 27 26 25 23 23 23 23 22 22 22 22 21 21 21 21 21 21 20 20 20 20 20 19 19 19 19 19 19 19 19 19 19 19 19 19 19 19 19 19
24 23 22 23 25 29 29 30 29 27 26 25 24 23 23 22 22 22 22 22 22 22 21 21 21 21 21 20 20 20 20 20 19 19 19 19 19 19 19 19 19 19 19 19 19 19 19 19 19
24 22 23 24 26 28 30 30 29 27 26 25 24 23 23 21 22 22 22 22 22 22 21 21 21 21 21 21 20 20 20 20 20 19 19 19 19 19 19 19 19 19 19 19 19 19 19 19 19
26 21 23 24 26 27 30 30 30 29 27 26 25 23 23 22 22 21 21 22 21 22 22 21 21 21 21 21 20 20 20 20 20 20 20 19 19 19 19 19 19 19 19 18 18 19 19 19 19
26 21 21 24 26 27 30 30 30 29 27 27 26 25 24 23 22 21 21 21 21 21 22 22 21 21 21 21 20 20 20 20 20 20 19 19 19 19 19 18 18 18 18 18 18 18 19 19 19
25 21 22 25 27 27 29 30 30 28 26 25 25 25 24 23 23 21 21 21 21 21 21 22 22 21 21 21 20 20 20 20 20 20 19 19 19 19 18 18 18 18 18 18 18 18 19 18 18
24 23 24 26 28 28 29 30 30 27 24 24 24 24 23 24 23 22 21 21 22 22 21 21 22 21 21 21 20 20 20 20 20 19 19 19 19 18 18 18 18 18 18 18 18 18 18 18 18
24 25 26 27 28 29 30 30 28 26 25 26 26 25 24 24 23 22 22 22 22 21 21 21 21 21 21 20 20 20 20 19 19 19 19 19 19 18 18 18 18 18 18 18 18 18 18 18 18
24 25 27 28 29 29 30 30 27 25 26 25 25 25 24 24 24 23 22 22 21 21 21 21 20 21 20 20 19 19 19 19 19 19 19 18 18 18 18 18 18 18 18 18 18 18 18 18 18
25 26 27 28 29 29 29 29 26 24 24 24 24 24 24 24 24 23 22 22 22 21 21 21 20 20 19 19 19 19 19 19 19 19 19 18 18 18 18 18 18 18 18 18 18 18 18 18 18
27 25 24 26 27 29 29 28 26 24 23 23 23 24 24 24 23 23 23 22 22 22 21 21 20 20 19 19 19 19 19 19 19 19 19 18 18 18 18 18 18 18 18 18 18 18 18 18 18
24 23 23 25 26 28 28 26 26 24 23 22 22 23 23 23 23 23 23 23 22 22 21 21 21 20 20 20 19 19 19 19 19 19 19 18 18 18 18 18 18 18 18 18 18 18 18 18 18
22 22 23 25 26 27 27 25 26 25 23 22 22 22 22 22 22 22 22 22 22 22 21 21 21 21 21 20 20 20 19 19 19 19 18 18 18 18 18 18 18 18 18 18 18 18 18 18 18
21 22 23 24 26 27 26 25 26 25 24 22 22 21 21 22 22 22 22 22 22 22 22 21 21 21 20 20 20 20 19 19 18 18 18 18 18 18 18 18 18 18 18 18 18 18 18 18 18
23 23 23 25 26 26 25 25 26 25 24 22 21 21 21 21 22 22 22 22 21 21 21 21 21 20 20 20 19 19 19 18 18 18 18 18 18 18 17 17 17 17 17 17 17 17 17 18 18
24 24 23 24 25 26 25 25 25 24 24 23 21 21 20 20 21 21 22 21 21 21 20 20 20 20 19 19 19 18 18 18 18 18 17 17 17 17 17 17 17 17 17 17 17 17 17 17 17
24 24 24 23 23 23 23 22 23 25 25 23 22 21 20 20 20 20 20 20 20 20 20 20 19 19 19 19 19 18 18 18 18 17 17 17 17 17 17 17 17 17 17 17 17 17 16 17 17
23 24 25 24 21 20 22 20 21 23 22 22 21 20 19 19 19 19 20 20 20 20 20 19 19 19 19 19 19 18 18 18 18 18 18 17 17 17 17 17 17 17 16 16 16 16 16 16 17
24 24 24 23 21 20 20 20 20 20 21 20 19 18 18 18 18 18 18 19 19 19 18 18 18 18 18 18 18 18 18 17 17 17 17 17 17 17 17 16 16 16 16 16 16 16 16 16 16
23 22 20 18 18 18 20 20 19 18 19 19 17 16 16 16 16 16 16 17 17 17 17 17 17 17 17 17 17 17 17 17 17 17 17 17 17 16 16 16 16 16 15 15 15 16 16 16 16
21 18 17 17 16 17 19 19 18 17 17 17 16 15 15 15 15 15 15 15 15 16 16 16 16 16 16 16 16 16 16 16 16 17 17 17 16 15 15 15 15 15 15 15 15 15 15 15 16
21 18 17 17 16 16 18 18 17 16 15 15 15 14 14 15 15 15 15 15 15 15 16 16 16 15 15 15 15 15 15 16 16 16 16 16 15 15 15 14 14 14 14 14 14 14 15 15 15
20 17 17 15 16 16 16 17 16 16 15 15 14 14 14 14 15 15 15 15 15 15 15 15 15 15 14 14 15 15 15 15 15 15 15 15 14 14 14 14 14 14 14 14 14 14 14 14 14
17 16 14 14 15 14 15 15 15 14 14 14 14 13 14 14 14 15 15 14 14 14 14 14 14 14 14 14 14 14 14 14 14 14 14 14 14 14 14 14 14 14 14 14 13 14 14 14 14
17 15 13 12 13 13 13 13 15 13 13 13 13 14 14 14 14 14 14 14 13 14 14 14 14 14 14 14 14 14 14 14 14 14 14 13 13 13 13 13 13 13 13 13 13 13 13 13 13
17 15 13 13 12 12 11 12 14 13 13 13 13 14 14 14 14 14 14 14 13 13 13 13 13 13 13 13 13 13 13 13 13 13 13 13 13 13 13 13 13 13 13 13 13 13 13 13 13

GEFSSGP_850_meantemp_018.txt.gz
Temperature
24 24 23 22 21 21 23 24 24 25 24 24 25 24 23 21 21 21 21 22 21 21 20 20 20 20 20 20 20 20 19 19 19 19 19 19 19 19 19 19 19 19 19 19 19 19 19 19 19
24 24 23 22 21 23 24 24 24 24 24 25 24 23 21 20 21 21 21 21 21 21 20 20 20 20 20 20 20 20 20 19 19 19 19 19 19 19 19 19 19 19 19 19 19 19 19 19 19
24 24 23 21 22 23 24 25 24 25 25 25 24 22 21 20 20 22 22 21 21 21 21 21 21 20 20 20 20 20 20 20 19 19 19 19 19 19 19 19 19 19 19 19 19 19 19 19 19
24 24 23 21 24 24 25 25 25 25 25 25 23 21 21 21 22 22 22 21 21 21 21 21 21 21 21 20 20 20 20 20 20 19 19 19 19 19 19 19 19 19 19 19 19 19 19 19 19
24 24 21 21 23 24 25 26 26 25 25 24 23 21 20 21 22 22 22 21 21 21 21 21 21 21 21 21 20 20 20 20 19 19 19 19 19 19 19 19 19 19 19 19 19 19 19 18 18
25 21 21 22 23 25 26 27 26 25 24 23 22 20 20 21 22 22 22 22 21 21 21 21 21 21 21 21 20 20 20 20 19 19 19 19 19 19 19 19 19 19 18 18 19 18 18 18 18
23 20 22 23 23 25 27 27 26 24 24 23 23 20 19 21 22 22 22 21 21 21 21 21 21 21 21 20 20 20 20 19 19 19 19 19 19 19 19 19 18 18 18 18 18 18 18 18 18
24 19 22 22 24 25 26 27 27 25 24 24 23 21 20 21 21 21 21 21 21 21 21 21 21 21 20 20 20 20 19 19 19 19 19 19 19 19 19 18 18 18 18 18 18 18 18 18 18
23 19 21 23 24 25 26 26 27 26 25 24 24 24 24 22 21 21 21 20 20 21 20 20 20 20 20 20 19 19 19 19 19 19 19 19 19 19 19 18 18 18 18 18 18 18 18 18 18
22 19 21 23 24 25 25 25 26 25 24 24 23 23 23 21 21 21 21 21 21 21 21 21 20 20 20 20 19 19 19 19 19 19 19 19 19 19 18 18 18 18 18 17 18 18 18 18 18
22 21 22 23 25 25 25 26 26 25 23 24 24 24 23 21 21 21 21 22 22 22 21 21 21 20 20 20 20 19 19 19 19 19 19 19 19 18 18 18 18 18 17 17 17 17 18 18 18
22 22 23 25 26 25 25 26 26 25 26 27 27 26 24 22 22 21 22 22 22 21 21 21 21 21 20 20 20 19 19 19 19 19 19 19 18 18 18 18 18 17 17 17 18 18 18 18 18
23 23 24 25 26 26 26 25 25 26 27 26 26 24 24 23 22 22 22 22 22 21 21 21 21 21 20 20 20 19 19 19 19 19 19 18 18 18 18 18 17 17 17 17 18 18 18 18 18
23 23 24 25 25 25 25 24 24 26 26 25 25 24 23 23 22 22 22 22 22 22 21 21 21 21 20 20 20 19 19 19 19 18 18 18 18 18 18 18 17 17 17 17 17 17 18 18 18
23 22 22 24 24 25 25 24 24 26 24 24 23 23 22 22 22 23 23 22 22 22 22 21 21 21 20 20 20 19 19 18 18 18 18 18 18 18 18 17 17 17 17 17 17 17 17 18 18
22 21 22 22 23 25 25 25 24 25 23 22 22 22 21 22 22 23 23 23 22 22 22 21 21 21 20 20 20 19 19 18 18 18 18 18 18 18 18 17 17 17 17 17 17 17 17 17 18
19 20 22 22 23 23 24 24 23 24 22 21 21 21 21 21 22 22 22 22 22 22 22 21 21 21 21 20 20 19 19 19 18 18 18 18 18 18 18 18 18 18 18 17 17 17 17 17 17
21 21 21 21 22 23 23 22 21 22 21 21 21 21 21 22 22 22 22 22 22 22 21 21 21 21 20 20 19 19 18 18 18 18 18 18 18 18 18 18 18 18 18 18 17 17 17 17 17
21 21 20 21 22 22 22 21 20 20 20 20 20 20 21 21 21 21 21 21 21 21 21 21 20 20 20 19 19 18 18 18 18 18 18 18 18 18 18 18 18 18 18 17 17 17 17 16 16
21 21 21 21 22 22 21 21 19 19 19 19 19 19 19 20 20 20 20 20 20 20 20 20 20 20 20 20 19 19 18 18 18 18 18 18 18 18 18 18 18 18 17 17 17 16 16 16 16
22 21 22 22 21 21 21 20 19 18 18 18 18 19 19 19 20 20 20 20 19 20 20 19 19 19 19 19 19 18 18 18 17 17 18 18 18 18 18 18 18 18 17 17 17 16 16 16 16
21 22 22 22 20 19 20 18 18 16 17 17 16 17 17 18 18 19 19 19 19 19 19 19 19 19 19 18 18 17 17 17 17 17 17 18 18 18 18 18 17 17 17 16 16 16 15 15 15
22 21 21 20 20 19 18 18 17 15 16 16 16 16 17 17 17 17 18 18 18 18 18 19 19 19 19 18 18 17 17 17 17 17 17 17 17 17 17 17 17 17 16 16 15 15 15 15 15
21 19 18 15 16 17 18 17 16 16 16 16 15 16 16 17 17 17 17 17 17 17 17 17 18 18 18 18 17 16 16 16 16 16 15 16 16 16 16 16 16 16 16 15 15 15 15 15 15
19 17 16 16 15 16 17 16 15 16 16 15 15 15 16 17 17 17 16 16 17 17 16 16 16 16 16 16 16 15 15 15 15 15 15 15 16 16 16 16 16 15 15 15 15 14 14 14 14
18 17 16 16 15 15 16 16 15 15 15 15 15 15 16 16 16 16 16 16 16 16 16 15 15 15 15 15 14 14 14 14 14 15 15 15 15 15 15 15 15 15 15 14 14 14 14 14 14
18 16 16 14 15 14 14 14 15 14 14 14 14 14 15 16 16 16 16 15 15 15 15 15 14 15 14 14 14 14 14 14 14 14 14 14 14 14 14 14 15 14 14 14 14 14 14 14 13
16 14 13 14 15 14 14 14 14 15 14 14 13 14 16 16 16 15 15 15 14 14 14 14 14 14 14 14 13 13 13 13 13 14 14 14 14 14 14 14 14 14 14 14 14 13 13 13 13
16 14 12 11 12 13 13 13 14 14 14 13 13 15 16 16 15 15 14 14 14 13 13 13 13 13 13 13 13 13 13 13 13 13 13 14 14 14 14 14 14 14 13 13 13 13 13 13 13
16 15 12 14 14 11 11 12 14 13 13 13 14 15 16 15 15 14 14 14 13 13 13 13 13 13 13 13 13 13 13 13 13 13 13 13 14 14 13 13 13 13 13 12 12 12 12 12 12